Change the Weather History Date:

Thursday, October 31, 2013

  Actual Average Record
Temperature  
Mean Temperature 63 °F -  
Max Temperature 66 °F 61 °F 78 °F (1999)
Min Temperature 57 °F 41 °F 34 °F (2012)
Degree Days  
Heating Degree Days 2    
Growing Degree Days 13 (Base 50)    
Moisture  
Dew Point 61 °F    
Average Humidity 89    
Maximum Humidity 100    
Minimum Humidity 73    
Precipitation  
Precipitation 0.79 in - - ()
Sea Level Pressure  
Sea Level Pressure 29.67 in    
Wind  
Wind Speed 15 mph (South)    
Max Wind Speed 37 mph    
Max Gust Speed 53 mph    
Visibility 8 miles    
Events Rain    
Averages and records for this station are not official NWS values.
T = Trace of Precipitation, MM = Missing Value Source: NWS Daily Summary

Daily Weather History Graph

Daily Weather History Graph

Search for Another Location

Airport or City:

Trip Planner

Search our weather history database for the weather conditions in past years. The results will help you decide how hot, cold, wet, or windy it might be!

Date:

Astronomy

Oct. 31, 2013 Rise Set
Actual Time 8:08 AM EDT 6:45 PM EDT
Civil Twilight 7:41 AM EDT 7:12 PM EDT
Nautical Twilight 7:10 AM EDT 7:43 PM EDT
Astronomical Twilight 6:39 AM EDT 8:14 PM EDT
Moon 5:00 AM EDT (10/31) 5:01 PM EDT (10/31)
Length of Visible Light 11h 31m
Length of Day
10h 37m
Waning Crescent, 10% of the Moon is Illuminated
Oct 31
Waning Crescent
Nov 3
New
Nov 10
First Quarter
Nov 17
Full
Nov 25
Last Quarter

Hourly Weather History & Observations

Time (EDT) Temp. Dew Point Humidity Pressure Visibility Wind Dir Wind Speed Gust Speed Precip Events Conditions
12:58 AM 64.9 °F 56.3 °F 74% 30.02 in 10.0 mi South 8.1 mph - N/A   Clear
1:02 AM 64.4 °F 57.2 °F 77% 30.02 in 10.0 mi South 8.1 mph - N/A Rain Light Rain
1:11 AM 64.4 °F 57.2 °F 77% 30.02 in 10.0 mi South 9.2 mph - N/A   Partly Cloudy
1:58 AM 64.8 °F 56.1 °F 74% 30.00 in 10.0 mi South 9.2 mph - 0.00 in   Scattered Clouds
2:58 AM 64.6 °F 55.6 °F 73% 29.98 in 10.0 mi South 9.2 mph - N/A   Scattered Clouds
3:58 AM 64.6 °F 55.6 °F 73% 29.96 in 10.0 mi South 10.4 mph - N/A   Partly Cloudy
4:58 AM 64.8 °F 56.5 °F 74% 29.94 in 10.0 mi South 9.2 mph - N/A   Mostly Cloudy
5:53 AM 64.4 °F 57.2 °F 77% 29.94 in 10.0 mi South 12.7 mph - N/A Rain Light Rain
5:58 AM 64.8 °F 57.0 °F 76% 29.94 in 10.0 mi South 10.4 mph - 0.00 in Rain Light Rain
6:25 AM 62.6 °F 57.2 °F 82% 29.92 in 10.0 mi South 11.5 mph - N/A   Mostly Cloudy
6:58 AM 63.9 °F 57.4 °F 79% 29.91 in 10.0 mi South 12.7 mph - 0.00 in   Mostly Cloudy
7:21 AM 64.4 °F 57.2 °F 77% 29.90 in 10.0 mi South 13.8 mph - N/A Rain Light Rain
7:28 AM 64.4 °F 57.2 °F 77% 29.89 in 10.0 mi South 13.8 mph - N/A   Overcast
7:58 AM 63.7 °F 57.0 °F 79% 29.88 in 10.0 mi South 11.5 mph - 0.00 in   Overcast
8:18 AM 64.4 °F 57.2 °F 77% 29.87 in 10.0 mi South 15.0 mph - N/A Rain Light Rain
8:58 AM 62.2 °F 57.9 °F 86% 29.87 in 10.0 mi South 12.7 mph - 0.00 in Rain Light Rain
9:10 AM 62.6 °F 59.0 °F 88% 29.86 in 10.0 mi South 9.2 mph - N/A   Overcast
9:14 AM 62.6 °F 59.0 °F 88% 29.86 in 10.0 mi South 9.2 mph - N/A Rain Light Rain
9:58 AM 61.5 °F 58.8 °F 91% 29.85 in 10.0 mi South 9.2 mph - 0.01 in Rain Light Rain
10:08 AM 60.8 °F 59.0 °F 94% 29.85 in 6.0 mi South 9.2 mph - N/A Rain Light Rain
10:48 AM 62.6 °F 59.0 °F 88% 29.83 in 7.0 mi South 12.7 mph 23.0 mph N/A Rain Light Rain
10:58 AM 61.7 °F 58.6 °F 90% 29.83 in 7.0 mi South 16.1 mph 25.3 mph 0.01 in Rain Light Rain
11:08 AM 62.6 °F 59.0 °F 88% 29.83 in 8.0 mi South 20.7 mph 28.8 mph N/A Rain Light Rain
11:26 AM 62.6 °F 57.2 °F 82% 29.80 in 10.0 mi South 23.0 mph 31.1 mph N/A   Overcast
11:53 AM 62.6 °F 57.2 °F 82% 29.77 in 5.0 mi SSE 19.6 mph 29.9 mph N/A Rain Light Rain
11:58 AM 61.7 °F 57.2 °F 85% 29.77 in 10.0 mi SSE 17.3 mph 25.3 mph 0.00 in Rain Light Rain
12:06 PM 60.8 °F 57.2 °F 88% 29.76 in 10.0 mi SSE 17.3 mph 21.9 mph N/A   Overcast
12:12 PM 60.8 °F 57.2 °F 88% 29.75 in 10.0 mi SSE 18.4 mph 27.6 mph N/A Rain Light Rain
12:37 PM 60.8 °F 57.2 °F 88% 29.74 in 10.0 mi SSE 20.7 mph 33.4 mph N/A Rain Light Rain
12:43 PM 62.6 °F 57.2 °F 82% 29.73 in 10.0 mi SSE 18.4 mph 28.8 mph N/A   Overcast
12:58 PM 62.8 °F 58.3 °F 85% 29.73 in 10.0 mi SSE 24.2 mph 31.1 mph 0.01 in   Overcast
1:55 PM 64.2 °F 59.7 °F 85% 29.69 in 4.0 mi South 23.0 mph 32.2 mph 0.00 in Rain Light Rain
2:49 PM 62.6 °F 60.8 °F 94% 29.65 in 10.0 mi South 21.9 mph 27.6 mph N/A Rain Light Rain
2:58 PM 63.1 °F 60.8 °F 92% 29.65 in 10.0 mi South 20.7 mph 28.8 mph 0.01 in Rain Light Rain
3:58 PM 63.5 °F 62.1 °F 95% 29.59 in 10.0 mi South 23.0 mph 27.6 mph 0.05 in Rain Light Rain
4:08 PM 64.4 °F 62.6 °F 94% 29.57 in 10.0 mi South 21.9 mph 32.2 mph N/A Rain Light Rain
4:23 PM 64.4 °F 62.6 °F 94% 29.57 in 10.0 mi South 24.2 mph 31.1 mph N/A Rain Light Rain
4:27 PM 64.4 °F 62.6 °F 94% 29.56 in 3.0 mi South 24.2 mph 32.2 mph N/A Rain Light Rain
4:38 PM 64.4 °F 62.6 °F 94% 29.56 in 9.0 mi South 25.3 mph 36.8 mph N/A Rain Light Rain
4:43 PM 64.4 °F 62.6 °F 94% 29.56 in 10.0 mi South 21.9 mph 33.4 mph N/A Rain Light Rain
4:48 PM 64.4 °F 62.6 °F 94% 29.56 in 10.0 mi South 25.3 mph 33.4 mph N/A Rain Light Rain
4:53 PM 64.4 °F 62.6 °F 94% 29.55 in 10.0 mi South 23.0 mph 32.2 mph N/A Rain Light Rain
4:58 PM 64.8 °F 63.3 °F 95% 29.55 in 10.0 mi South 23.0 mph 32.2 mph 0.05 in Rain Light Rain
5:03 PM 64.4 °F 62.6 °F 94% 29.55 in 10.0 mi South 25.3 mph 33.4 mph N/A Rain Light Rain
5:13 PM 64.4 °F 64.4 °F 100% 29.56 in 10.0 mi South 24.2 mph 36.8 mph N/A Rain Light Rain
5:55 PM 64.4 °F 64.4 °F 100% 29.53 in 10.0 mi South 18.4 mph 31.1 mph N/A   Overcast
5:58 PM 65.1 °F 64.0 °F 96% 29.53 in 10.0 mi South 19.6 mph 25.3 mph 0.03 in   Overcast
6:09 PM 64.4 °F 64.4 °F 100% 29.52 in 10.0 mi SSE 17.3 mph 25.3 mph N/A Rain Light Rain
6:31 PM 66.2 °F 64.4 °F 94% 29.50 in 1.8 mi South 19.6 mph 25.3 mph N/A Rain Rain
6:34 PM 66.2 °F 64.4 °F 94% 29.50 in 1.8 mi South 20.7 mph 31.1 mph N/A Rain Rain
6:39 PM 66.2 °F 64.4 °F 94% 29.50 in 3.0 mi South 23.0 mph 34.5 mph N/A Rain Light Rain
6:58 PM 65.5 °F 64.6 °F 97% 29.49 in 5.0 mi South 21.9 mph 31.1 mph 0.06 in Rain Light Rain
7:58 PM 66.0 °F 64.6 °F 95% 29.49 in 7.0 mi South 25.3 mph 41.4 mph 0.04 in Rain Light Rain
8:30 PM 66.2 °F 64.4 °F 94% 29.49 in 2.0 mi South 17.3 mph 28.8 mph N/A Rain Rain
8:52 PM 66.2 °F 64.4 °F 94% 29.48 in 1.8 mi SSW 18.4 mph 26.5 mph N/A Rain Heavy Rain
8:58 PM 66.2 °F 64.4 °F 94% 29.48 in 3.0 mi SSW 16.1 mph 25.3 mph 0.28 in Rain Light Rain
9:05 PM 66.2 °F 64.4 °F 94% 29.48 in 4.0 mi SSW 18.4 mph 28.8 mph N/A Rain Light Rain
9:20 PM 64.4 °F 64.4 °F 100% 29.47 in 3.0 mi SSW 16.1 mph 25.3 mph N/A Rain Rain
9:25 PM 64.4 °F 64.4 °F 100% 29.47 in 4.0 mi SSW 16.1 mph - N/A Rain Rain
9:35 PM 64.4 °F 64.4 °F 100% 29.47 in 9.0 mi SSW 19.6 mph 25.3 mph N/A Rain Light Rain
9:40 PM 64.4 °F 64.4 °F 100% 29.47 in 10.0 mi SSW 18.4 mph 25.3 mph N/A Rain Light Rain
9:45 PM 66.2 °F 64.4 °F 94% 29.47 in 10.0 mi SSW 23.0 mph 28.8 mph N/A Rain Light Rain
9:54 PM 66.2 °F 64.4 °F 94% 29.47 in 10.0 mi SSW 18.4 mph 31.1 mph N/A   Overcast
9:58 PM 66.2 °F 64.4 °F 94% 29.46 in 10.0 mi SSW 18.4 mph 31.1 mph 0.15 in   Overcast
10:08 PM 66.2 °F 64.4 °F 94% 29.47 in 10.0 mi SSW 23.0 mph 34.5 mph N/A   Overcast
10:39 PM 66.2 °F 64.4 °F 94% 29.47 in 10.0 mi SSW 18.4 mph 26.5 mph N/A   Light Drizzle
10:44 PM 66.2 °F 64.4 °F 94% 29.47 in 10.0 mi SSW 16.1 mph 31.1 mph N/A Rain Light Rain
10:58 PM 66.6 °F 64.9 °F 95% 29.48 in 3.0 mi SW 16.1 mph 25.3 mph 0.05 in Rain Light Rain
11:13 PM 66.2 °F 64.4 °F 94% 29.48 in 10.0 mi SW 17.3 mph 28.8 mph N/A Rain Light Rain
11:15 PM 66.2 °F 64.4 °F 94% 29.48 in 10.0 mi WSW 19.6 mph 28.8 mph N/A   Mostly Cloudy
11:25 PM 66.2 °F 62.6 °F 88% 29.49 in 10.0 mi WSW 18.4 mph 32.2 mph N/A   Mostly Cloudy
11:32 PM 66.2 °F 62.6 °F 88% 29.52 in 10.0 mi West 32.2 mph 40.3 mph N/A   Mostly Cloudy
11:34 PM 66.2 °F 60.8 °F 83% 29.53 in 10.0 mi WNW 36.8 mph 52.9 mph N/A Rain Light Rain
11:58 PM 57.2 °F 54.5 °F 91% 29.54 in 9.0 mi West 11.5 mph 19.6 mph 0.04 in Rain Light Rain